Showing default

DB-SKYFORGE CORE-TU, 68445

Orbit data source: Space-Track

DB-SKYFORGE CORE-TU, 68445 is a payload satellite owned by NearSpaceLaunch (US) in SSO that was launched on Mon, 30 Mar 2026 UTC via an FALCON 9 launch vehicle from the Air Force Western Test Range (AFWTR). Payload-class satellites include a variety of spacecraft equipped with specific instruments for various scientific and technological missions. These include communications satellites like Starlink; space stations such as the ISS; scientific satellites like the Hubble; Earth observation satellites from companies like Planet Labs, Umbra, and HawkEye 360; GPS; miniature CubeSats for education and research; and military/defense satellites.

Loading next visibility...
Identifier
68445, 2026-067AF
Orbit
SSO
Country
Flag of USUS
Related business
Manufacturer
NearSpaceLaunch
Mission
Operational spacecraft
Bus & Motor
THINSAT 0.5U, Unknown motor
Mass
0.5 kg wet, 0.5 kg dry
Launch date (UTC)
2026-03-30 (3 months ago)
Launch vehicle
FALCON 9
Launch site
Air Force Western Test Range (AFWTR)
Object type
Payload
Rocket body
Debris
Shape & HBR
Unknown shape, 0.2 m
Radar Cross Section
Medium (>0.1 m² and <1 m²)

Expand to show TLE details & history
Last TLE update: 1 day ago

TLE from 1 day ago
0 DB-SKYFORGE CORE-TU
1 68445U 26067AF  26171.42124799  .00003462  00000-0  17654-3 0  9994
2 68445  97.4526 129.6967 0006843  73.7811 286.4175 15.17393759 12422
Epoch: 2026-06-20T10:06Z
TLE epoch observation values (Epoch: 2026-06-20T10:06:35.826Z)
Latitude
-0.00002°
Longitude
69.41131°
Altitude
515.476 km
Speed
7.607 km/s
True Right ascension
08h 38m 47s
True Declination
0° 00' 00"
Sunlit
Object was in daylight at epoch
Visualization orbit readout
Latitude
Unknown
Longitude
Unknown
Altitude
Unknown
Speed
Unknown
Apparent Right ascension
Unknown
Apparent Declination
Unknown
Sunlit
N/A
Visualization observer readout
Local Sidereal Time
09:02:56
Azimuth
Unknown
Elevation
Unknown
Doppler factor
Unknown
Orbital elements
Apogee altitude
515.406 km
Perigee altitude
505.978 km
Semi-major axis
6,888.829 km
Eccentricity
0.00068
Inclination
97.4526°
RAAN
129.6967°
Arg. of periapsis
73.7811°
True anomaly
286.34226°
Mean anomaly
286.4175°
Eccentric anomaly
286.37988°
Mean motion
3.79599 °/min
Orbital period
94.84 mins
BSTAR
0.00017654
Loading maneuver chart data...
Computing Atmospheric mass density...
Loading historical data...
Loading historical data...
Loading historical data...
Loading historical data...
Loading historical data...
Loading historical data...
Loading historical data...

Documentation

Showing up to 5 results
|